Location: Limoges
(45.8354°N, 1.2645°E)
Time: 10:44:33
(UTC+01:00)

Vanguard 1 Rocket - Visible Passes

Search period start: 13 November 2024 00:00
Search period end: 23 November 2024 00:00
Orbit: 651 x 4217 km, 34.3° (Epoch: 12 November)

Date Brightness Start Highest point End Pass type
(mag) Time Alt. Az. Time Alt. Az. Time Alt. Az.
13 Nov 10.2 19:02:51 10° W 19:09:33 18° SW 19:14:20 10° S visible
14 Nov 10.1 17:46:09 10° W 17:58:00 31° SW 18:04:59 10° SSE visible
15 Nov 10.5 19:03:54 10° WSW 19:09:29 15° SW 19:13:46 10° SSW visible
16 Nov 10.4 17:46:22 10° W 17:58:01 28° SW 18:05:09 10° SSE visible
17 Nov 10.8 19:05:44 10° WSW 19:09:18 12° SW 19:12:19 10° SW visible
18 Nov 10.6 17:46:43 10° W 17:57:55 24° SW 18:05:05 10° S visible
20 Nov 10.9 17:47:15 10° W 17:57:39 21° SW 18:04:42 10° S visible
21 Nov 12.5 06:47:20 10° SE 06:52:04 11° ESE 06:56:53 10° ESE visible
22 Nov 11.2 17:48:09 10° W 17:57:15 17° SW 18:03:53 10° SSW visible
